Tracking 31027 objects as of 19-Jul-2025
HD Live streaming from Space Station
objects crossing your sky now

FENGYUN 1C DEB

Track FENGYUN 1C DEB now!
10-day predictions


NORAD ID: 30625
Int'l Code: 1999-025ANG
Perigee: 734.8 km
Apogee: 816.8 km
Inclination: 98.9 °
Period: 100.2 minutes
Semi major axis: 7146 km
RCS: 0.017 m2 (small)
Launch date: May 10, 1999
Source: People's Republic of China (PRC)
Launch site: Taiyaun Space Center, China (TSC)

Note: This is SATELLITE DEBRIS
Your satellite tracking list
IRIDIUM 106
Track 1 satellite(s)




NASA's NSSDC Master Catalog

Two Line Element Set (TLE):
1 30625U 99025ANG 25199.35505999  .00007985  00000-0  26596-2 0  9991
2 30625  98.9251 149.4027 0057343  17.1443 343.1662 14.36930571945733
Source of the keplerian elements: AFSPC